Starlink 11273

operational
NORAD ID: 60913 Int'l Des: 2024-154 Owner: SPXS Country: US Constellation: starlink
LEOCIRCULAR

Starlink 11273について

説明を読み込み中...

リアルタイム位置

3D地球を読み込み中...

次回通過

高度履歴

Altitude vs Time

uPlot chart will show altitude changes over time

軌道要素

1 60913U 24154L 25350.77989753 -.00001020 00000-0 -35613-5 0 9993
2 60913 53.1588 179.8916 0000689 65.6880 294.4209 15.69720768 75483
Epoch: Dec 16, 2025 • Age: 25 hours

現在のステータス

高度 360.4 km
速度 7.70 km/s
衛星直下点 22.68°N, 47.21°W
打ち上げ日 Aug 31, 2024
運用期間 1.2 years
タイプ internet

技術仕様

分類 Payload
質量 960.00 kg
乾燥質量 910.00 kg
総質量 960.00 kg
長さ 0.30 m
直径 4.10 m
スパン 29.00 m
形状 Box + pan
製造者 SPXS
バスタイプ Starlink V2MD
フェーズステータス In Orbit
所有者/国 SPXS/US

大規模コンステレーション

Loading constellations...